Weather in Berkut

Russia / Tyumen Oblast     56°44′31″N   66°03′20″E
temp.,
°C
wind,
m/s
gust,
m/s
humid.,
%
clouds,
%
prec.,
mm/h
press.,
hPa
HPBL,
m
23 april, fri
fri2323:00+8s7155898 0.0 1035504
02:00+6s61357100 0.0 1035363
05:00+5sse5106386 0.0 1035235
08:00+9s5964100 0.0 1034345
11:00+11ssw6855100 0.0 1035808
14:00+13s6945100 0.0 10341254
17:00+15s71041100 0.0 10332075
20:00+11s61249100 0.0 1033547
24 april, sat
sat2423:00+9s51149100 0.0 1033418
02:00+7sse41049100 0.0 1031320
05:00+6sse4952100 0.0 1030269
08:00+7sse5948100 0.0 1029438
11:00+9sse6743100 0.0 1028747
14:00+10se6844100 0.0 1027852
17:00+9se7842100 0.0 1026917
20:00+8se51146100 0.0 1025543
25 april, sun
sun2523:00+7se51151100 0.0 1023412
02:00+6ese51054100 0.0 1021360
05:00+5se41056100 0.0 1020338
08:00+7ese695399 0.0 1019382
11:00+12se673759 0.0 10171152
14:00+14sse673599 0.0 10162013
17:00+14sse673669 0.0 10151945
20:00+11s364655 0.0 1015129
26 april, mon
mon2623:00+7ssw35805 0.0 1014113
02:00+7ssw41084100 0.3 1013406
05:00+7wsw611790 0.3 1013381
08:00+7wsw71174100 0.4 1014900
11:00+11wsw9123899 0.4 10142509
14:00+12w9123460 0.0 10162661
17:00+13w8122897 0.0 10173032
20:00+9wsw47366 0.0 1017104
27 april, tue
tue2723:00+7sw4846100 0.0 1017136
02:00+6ssw3654100 0.0 101695
05:00+6ssw4959100 0.0 1016205
08:00+8ssw4957100 0.0 1016366
11:00+9s6661100 0.0 1014919
14:00+8se4578100 0.8 1012959
17:00+7ene5991100 5.1 1008525
20:00+7nne5893100 2.9 1005462